Regional Weather Roundup
Issued by NWS Jackson, KY

Home | Current Version | Previous Version | Text Only | Print | Product List | Glossary Off
Versions: 1 2 3 4 5 6 7 8 9 10 11 12 13 14 15 16 17 18 19 20 21 22 23 24 25 26 27

000
ASUS43 KJKL 231710
RWRJKL

EAST KENTUCKY HOURLY WEATHER ROUNDUP
NATIONAL WEATHER SERVICE JACKSON KY
1200 PM EST TUE JAN 23 2018

NOTE: "FAIR" INDICATES FEW OR NO CLOUDS BELOW 12,000 FEET WITH
NO SIGNIFICANT WEATHER AND/OR OBSTRUCTIONS TO VISIBILITY.

* THESE REPORTS ARE NOT UNDER NWS QUALITY CONTROL AND MAY NOT
  REPORT WEATHER SUCH AS PRECIPITATION AND FOG.

KYZ079-080-083-085-087-088-110-112-115-119-120-231800
...EASTERN KENTUCKY...

CITY           SKY/WX    TMP DP  RH WIND       PRES   REMARKS
JACKSON        CLOUDY    45  29  53 SW10G21   29.88R
LONDON         CLOUDY    45  29  53 W17       29.92S
SOMERSET*      CLOUDY    43  28  56 W13       29.96S
MONTICELLO*    PTSUNNY   47  31  53 W20G26    29.97S
WILLIAMSBURG*  PTSUNNY   46  28  49 SW9       29.94S
MIDDLESBORO*   CLOUDY    46  30  52 SW8       29.95S
HARLAN APT*    CLOUDY    45  27  49 SW5G17    29.91S
PIKE CO APT*   CLOUDY    46  29  50 SW12G24   29.86F
BIG SANDY APT* CLOUDY    46  30  52 W18G24    29.87R
MOREHEAD APT*  CLOUDY    43  27  52 W10G25    29.90R
ASHLAND*       CLOUDY    46  30  53 W14G25    29.86R
$$

KYZ035-036-041-042-044-050-067-078-099-231800
...CENTRAL KENTUCKY...

CITY           SKY/WX    TMP DP  RH WIND       PRES   REMARKS
MT STERLING*   CLOUDY    43  30  61 W13G24    29.91R
FLEMING/MASON* CLOUDY    41  29  63 W23G29    29.88R
DANVILLE*      CLOUDY    41  28  60 W15G24    29.95R
LEXINGTON      CLOUDY    42  29  59 SW18G28   29.91R
FRANKFORT      CLOUDY    42  28  57 W9G20     29.91R
LOUISVILLE     CLOUDY    42  32  67 W14       29.95R
LEBANON*       CLOUDY    41  27  56 SW12G17   29.95S
GLASGOW*       PTSUNNY   44  30  59 W13       29.99R
BOWLING GREEN  CLOUDY    44  30  57 W16G22    30.01R
$$

KYZ091>093-OHZ055-061-077-WVZ005-015-034-035-042-231800
...SOUTHERN OHIO/WEST VIRGINIA...

CITY           SKY/WX    TMP DP  RH WIND       PRES   REMARKS
COVINGTON      CLOUDY    39  34  82 W14G26    29.85R WCI  31
COLUMBUS       CLOUDY    40  31  70 W23G33    29.77R WCI  30
DAYTON         PTSUNNY   37  34  89 SW24G30   29.79R WCI  26
WILMINGTON     CLOUDY    37  33  85 SW21      29.80R WCI  26
HUNTINGTON     CLOUDY    44  32  62 W16G23    29.86
CHARLESTON     PTSUNNY   48  30  49 W17G31    29.82S
BECKLEY        PTSUNNY   46  28  49 W22G33    29.78R
BLUEFIELD        N/A     46  25  43 SW25G31   29.79S
LOGAN CO APT*  CLOUDY    45  28  53 VRB7G18   29.83S
$$

VAZ002-007-008-TNZ017-027-036-066-071-231800
...SOUTHWEST VIRGINIA/EAST TENNESSEE...

CITY           SKY/WX    TMP DP  RH WIND       PRES   REMARKS
WISE*          CLOUDY    43  30  61 SW13G20   29.88R
JONESVILLE*    PTSUNNY   46  28  49 SW14      29.95S
ABINGDON*      PTSUNNY   48  28  46 W14G25    29.88R
BRISTOL          N/A     50  30  46 SW16G25   29.91R
MORRISTOWN*    PTSUNNY   46  28  49 W13G20    29.94S
SEVIERVILLE*   PTSUNNY   52  28  40 W10G23    29.96S
KNOXVILLE      PTSUNNY   49  30  48 SW14      29.96F
LAFOLLETTE*    MOSUNNY   46  28  49 VRB7G15   29.99R
CROSSVILLE       N/A     43  28  55 SW8       29.96S
NASHVILLE      CLOUDY    46  29  51 W9G18     30.03R
$$

...KEY TO REMARKS...
VSB - VISIBILITY IN MILES
WCI - WIND CHILL INDEX
HX  - HEAT INDEX

$$




USA.gov is the U.S. government's official web portal to all federal, state and local government web resources and services.